Aberdeen, SD

1:13 AM CDT on September 28, 2016 (GMT -0500)
Aberdeen Regional

Weather History for KABR - October, 2012

Change the Weather History Date:

Monday, October 15, 2012

  Actual Average Record
Temperature  
Mean Temperature 52 °F 46 °F  
Max Temperature 75 °F 58 °F 88 °F (1958)
Min Temperature 29 °F 33 °F 18 °F (1992)
Degree Days  
Heating Degree Days 13 19  
Month to date heating degree days 303 244  
Since 1 July heating degree days 545 518  
Cooling Degree Days 0 0  
Month to date cooling degree days 0 0  
Year to date cooling degree days 764 523  
Growing Degree Days 2 (Base 50)    
Moisture  
Dew Point 33 °F    
Average Humidity 54    
Maximum Humidity 85    
Minimum Humidity 23    
Precipitation  
Precipitation 0.00 in 0.08 in 1.61 in (1957)
Month to date precipitation 0.02 1.09  
Year to date precipitation 12.47 19.57  
Snow  
Snow 0.00 in - - ()
Month to date snowfall T  
Since 1 July snowfall T  
Snow Depth 0.00 in    
Sea Level Pressure  
Sea Level Pressure 29.78 in    
Wind  
Wind Speed 10 mph (South)    
Max Wind Speed 23 mph    
Max Gust Speed 28 mph    
Visibility 10 miles    
Events      
T = Trace of Precipitation, MM = Missing Value Source: NWS Daily Summary

Daily Weather History Graph

Daily Weather History Graph

Search for Another Location

Airport or City:

Trip Planner

Search our weather history database for the weather conditions in past years. The results will help you decide how hot, cold, wet, or windy it might be!

Date:

Astronomy

Oct. 15, 2012 Rise Set
Actual Time 7:50 AM CDT 6:47 PM CDT
Civil Twilight 7:20 AM CDT 7:17 PM CDT
Nautical Twilight 6:46 AM CDT 7:51 PM CDT
Astronomical Twilight 6:12 AM CDT 8:25 PM CDT
Moon 8:05 AM CDT (10/15) 6:43 PM CDT (10/15)
Length of Visible Light 11h 56m
Length of Day
10h 56m
New Moon, 0% of the Moon is Illuminated
Oct 15
New Moon
Oct 21
First Quarter
Oct 29
Full
Nov 6
Last Quarter
Nov 13
New

Hourly Weather History & Observations

Time (CDT) Temp. Windchill Dew Point Humidity Pressure Visibility Wind Dir Wind Speed Gust Speed Precip Events Conditions
12:53 AM 35.1 °F - 28.0 °F 76% 29.95 in 10.0 mi Calm Calm - N/A   Clear
1:53 AM 30.9 °F - 26.1 °F 82% 29.96 in 10.0 mi Calm Calm - N/A   Clear
2:53 AM 32.0 °F 28.7 °F 27.0 °F 82% 29.95 in 10.0 mi East 3.5 mph - N/A   Clear
3:53 AM 32.0 °F 28.7 °F 27.0 °F 82% 29.92 in 10.0 mi SSE 3.5 mph - N/A   Clear
4:53 AM 30.0 °F 25.2 °F 24.1 °F 79% 29.91 in 10.0 mi South 4.6 mph - N/A   Clear
5:53 AM 30.9 °F 26.2 °F 25.0 °F 79% 29.90 in 10.0 mi South 4.6 mph - N/A   Clear
6:53 AM 37.0 °F 33.3 °F 30.0 °F 76% 29.90 in 10.0 mi South 4.6 mph - N/A   Partly Cloudy
7:53 AM 43.0 °F 37.7 °F 32.0 °F 65% 29.89 in 10.0 mi South 9.2 mph - N/A   Scattered Clouds
8:53 AM 45.0 °F 39.3 °F 33.1 °F 63% 29.88 in 10.0 mi South 11.5 mph - N/A   Mostly Cloudy
9:53 AM 48.0 °F - 34.0 °F 58% 29.87 in 10.0 mi South 15.0 mph - N/A   Clear
10:53 AM 54.0 °F - 35.1 °F 49% 29.85 in 10.0 mi South 18.4 mph 26.5 mph N/A   Partly Cloudy
11:53 AM 57.9 °F - 35.1 °F 42% 29.82 in 10.0 mi South 17.3 mph - N/A   Clear
12:53 PM 64.0 °F - 35.1 °F 34% 29.78 in 10.0 mi South 16.1 mph - N/A   Clear
1:53 PM 68.0 °F - 35.1 °F 30% 29.74 in 10.0 mi South 18.4 mph 26.5 mph N/A   Clear
2:53 PM 72.0 °F - 35.1 °F 26% 29.70 in 10.0 mi South 18.4 mph 24.2 mph N/A   Clear
3:53 PM 73.9 °F - 34.0 °F 23% 29.66 in 10.0 mi South 17.3 mph 27.6 mph N/A   Clear
4:53 PM 73.0 °F - 35.1 °F 25% 29.64 in 10.0 mi South 17.3 mph 25.3 mph N/A   Clear
5:53 PM 72.0 °F - 35.1 °F 26% 29.62 in 10.0 mi South 15.0 mph - N/A   Clear
6:53 PM 69.1 °F - 35.1 °F 29% 29.62 in 10.0 mi South 13.8 mph - N/A   Mostly Cloudy
7:53 PM 64.9 °F - 36.0 °F 34% 29.62 in 10.0 mi South 8.1 mph - N/A   Partly Cloudy
8:53 PM 63.0 °F - 36.0 °F 37% 29.62 in 10.0 mi SSW 4.6 mph - N/A   Partly Cloudy
9:53 PM 60.1 °F - 36.0 °F 41% 29.64 in 10.0 mi SW 4.6 mph - N/A   Mostly Cloudy
10:53 PM 62.1 °F - 36.0 °F 38% 29.62 in 10.0 mi Calm Calm - N/A   Mostly Cloudy
11:53 PM 57.9 °F - 39.0 °F 49% 29.62 in 10.0 mi SE 6.9 mph - N/A   Mostly Cloudy